TimeEDT,TemperatureF,Dew PointF,Humidity,Sea Level PressureIn,VisibilityMPH,Wind Direction,Wind SpeedMPH,Gust SpeedMPH,PrecipitationIn,Events,Conditions,WindDirDegrees,DateUTC
12:53 AM,64.0,61.0,90,29.96,7.0,Calm,Calm,-,N/A,,Scattered Clouds,0,2013-05-17 04:53:00
1:53 AM,64.0,61.0,90,29.96,5.0,SSE,4.6,-,N/A,,Partly Cloudy,150,2013-05-17 05:53:00
2:53 AM,64.9,61.0,87,29.96,5.0,Calm,Calm,-,N/A,,Scattered Clouds,0,2013-05-17 06:53:00
3:53 AM,64.0,61.0,90,29.96,3.0,SE,3.5,-,N/A,,Mostly Cloudy,130,2013-05-17 07:53:00
4:53 AM,64.9,62.1,90,29.97,4.0,South,5.8,-,N/A,,Overcast,180,2013-05-17 08:53:00
5:53 AM,64.9,62.1,90,29.98,4.0,Calm,Calm,-,N/A,,Overcast,0,2013-05-17 09:53:00
6:41 AM,64.4,60.8,88,30.00,2.0,Calm,Calm,-,N/A,,Overcast,0,2013-05-17 10:41:00
6:53 AM,64.9,62.1,90,29.99,2.5,Calm,Calm,-,0.00,Rain,Light Rain,0,2013-05-17 10:53:00
8:53 AM,70.0,63.0,78,30.01,6.0,South,4.6,-,N/A,,Haze,170,2013-05-17 12:53:00
9:53 AM,75.0,63.0,66,30.01,10.0,Calm,Calm,-,N/A,,Clear,0,2013-05-17 13:53:00
10:53 AM,77.0,62.1,60,30.01,10.0,SE,4.6,-,N/A,,Clear,140,2013-05-17 14:53:00
11:53 AM,80.1,63.0,56,30.01,10.0,South,10.4,-,N/A,,Clear,170,2013-05-17 15:53:00
12:53 PM,81.0,61.0,50,30.00,10.0,Variable,6.9,-,N/A,,Partly Cloudy,0,2013-05-17 16:53:00
1:53 PM,82.9,60.1,46,29.98,10.0,SE,10.4,-,N/A,,Partly Cloudy,140,2013-05-17 17:53:00
3:17 PM,73.4,62.6,69,29.99,7.0,SSW,26.5,35.7,0.00,Rain-Thunderstorm,Light Rain,200,2013-05-17 19:17:00
3:25 PM,69.8,62.6,78,30.00,4.0,SSW,17.3,35.7,0.02,Rain-Thunderstorm,Thunderstorms and Rain,200,2013-05-17 19:25:00
3:44 PM,69.8,60.8,73,30.01,9.0,South,13.8,-,0.02,Rain-Thunderstorm,Light Thunderstorms and Rain,190,2013-05-17 19:44:00
3:53 PM,68.0,61.0,78,30.00,10.0,SSW,8.1,-,0.02,Rain-Thunderstorm,Light Thunderstorms and Rain,200,2013-05-17 19:53:00
4:31 PM,68.0,60.8,78,30.00,7.0,SW,9.2,-,0.00,Rain,Light Rain,220,2013-05-17 20:31:00
4:53 PM,68.0,62.1,81,29.98,10.0,WSW,4.6,-,0.01,Rain,Light Rain,240,2013-05-17 20:53:00
5:53 PM,71.1,64.9,81,29.98,10.0,ESE,6.9,-,0.00,,Mostly Cloudy,110,2013-05-17 21:53:00
6:53 PM,72.0,64.0,76,29.99,10.0,SSE,6.9,-,N/A,,Overcast,150,2013-05-17 22:53:00
7:53 PM,72.0,60.1,66,30.00,10.0,South,8.1,-,0.00,,Overcast,180,2013-05-17 23:53:00
8:53 PM,70.0,62.1,76,30.01,10.0,SSE,4.6,-,0.00,Rain,Light Rain,160,2013-05-18 00:53:00
9:53 PM,68.0,64.0,87,30.01,8.0,Calm,Calm,-,0.00,,Overcast,0,2013-05-18 01:53:00
10:53 PM,68.0,64.0,87,30.02,8.0,ESE,6.9,-,N/A,,Overcast,110,2013-05-18 02:53:00
11:53 PM,68.0,64.0,87,30.02,8.0,ESE,6.9,-,N/A,,Overcast,110,2013-05-18 03:53:00